Location: *
(53.9002°N, 27.5624°E)
Time: 15:05:30
(UTC+00:00)

Sich 1 - Pass Details

Date: 12 November 2019
Orbit: 595 x 625 km, 82.5° (Epoch: 11 December)

Event Time Altitude Azimuth Distance (km) Brightness Sun altitude
Rises 15:36:48 0° 353° (N) 2,863 6.4 -11.8°
Reaches altitude 10° 15:39:08 10° 1° (N) 1,959 5.5 -12.1°
Maximum altitude 15:43:13 39° 71° (ENE) 910 3.4 -12.7°
Drops below altitude 10° 15:47:19 10° 141° (SE) 1,961 5.4 -13.3°
Sets 15:49:38 0° 149° (SSE) 2,866 6.3 -13.6°
